Change the Weather History Date:

Sunday, September 21, 2014

  Actual Average Record
Temperature  
Mean Temperature 62 °F 64 °F  
Max Temperature 75 °F 77 °F 103 °F (2005)
Min Temperature 49 °F 51 °F 32 °F (1999)
Degree Days  
Heating Degree Days 3 4  
Month to date heating degree days 86 43  
Since 1 July heating degree days 88 49  
Cooling Degree Days 0 3  
Month to date cooling degree days 84 105  
Year to date cooling degree days 1195 1140  
Growing Degree Days 12 (Base 50)    
Moisture  
Dew Point 47 °F    
Average Humidity 61    
Maximum Humidity 86    
Minimum Humidity 35    
Precipitation  
Precipitation 0.00 in 0.10 in 1.43 in (2006)
Month to date precipitation 3.35 2.23  
Year to date precipitation 27.05 23.81  
Snow  
Snow 0.00 in 0.00 in - ()
Month to date snowfall 0.0 0.0  
Since 1 July snowfall 0.0 0.0  
Snow Depth 0.00 in    
Sea Level Pressure  
Sea Level Pressure 30.20 in    
Wind  
Wind Speed 9 mph (North)    
Max Wind Speed 23 mph    
Max Gust Speed 29 mph    
Visibility 10 miles    
Events Rain    
T = Trace of Precipitation, MM = Missing Value Source: NWS Daily Summary

Daily Weather History Graph

Daily Weather History Graph

Search for Another Location

Airport or City:

Trip Planner

Search our weather history database for the weather conditions in past years. The results will help you decide how hot, cold, wet, or windy it might be!

Date:

Astronomy

Sep. 21, 2014 Rise Set
Actual Time 7:13 AM CDT 7:25 PM CDT
Civil Twilight 6:46 AM CDT 7:53 PM CDT
Nautical Twilight 6:14 AM CDT 8:25 PM CDT
Astronomical Twilight 5:41 AM CDT 8:57 PM CDT
Moon 4:47 AM CDT (9/21) 6:03 PM CDT (9/21)
Length of Visible Light 13h 07m
Length of Day
12h 12m
Waning Crescent, 6% of the Moon is Illuminated
Sep 21
Waning Crescent
Sep 24
New
Oct 1
First Quarter
Oct 8
Full
Oct 15
Last Quarter

Hourly Weather History & Observations

Time (CDT) Temp. Dew Point Humidity Pressure Visibility Wind Dir Wind Speed Gust Speed Precip Events Conditions
12:54 AM 64.0 °F 51.1 °F 63% 30.08 in 10.0 mi NNW 9.2 mph - N/A   Clear
1:54 AM 57.0 °F 51.1 °F 81% 30.09 in 10.0 mi North 4.6 mph - N/A   Clear
2:54 AM 55.9 °F 50.0 °F 80% 30.10 in 10.0 mi WNW 3.5 mph - N/A   Clear
3:54 AM 54.0 °F 48.9 °F 83% 30.11 in 10.0 mi Calm Calm - N/A   Clear
4:54 AM 53.1 °F 48.0 °F 83% 30.13 in 10.0 mi Calm Calm - N/A   Clear
5:54 AM 55.0 °F 48.0 °F 77% 30.14 in 10.0 mi Calm Calm - N/A   Clear
6:54 AM 50.0 °F 46.0 °F 86% 30.17 in 10.0 mi Calm Calm - N/A   Clear
7:54 AM 55.0 °F 46.9 °F 74% 30.20 in 10.0 mi NNW 8.1 mph - N/A   Clear
8:54 AM 60.1 °F 46.9 °F 62% 30.22 in 10.0 mi NNW 11.5 mph - N/A   Clear
9:54 AM 64.4 °F 46.4 °F 52% 30.25 in 10.0 mi NNW 13.8 mph - N/A   Clear
10:54 AM 69.1 °F 46.9 °F 45% 30.23 in 10.0 mi NNW 12.7 mph - N/A   Clear
11:54 AM 71.1 °F 46.0 °F 41% 30.24 in 10.0 mi North 17.3 mph 24.2 mph N/A   Clear
12:54 PM 73.0 °F 46.0 °F 38% 30.23 in 10.0 mi North 19.6 mph 25.3 mph N/A   Clear
1:54 PM 73.0 °F 46.0 °F 38% 30.22 in 10.0 mi North 17.3 mph 27.6 mph N/A   Clear
2:54 PM 73.9 °F 45.0 °F 35% 30.21 in 10.0 mi North 20.7 mph - N/A   Clear
3:54 PM 73.9 °F 46.9 °F 38% 30.21 in 10.0 mi North 18.4 mph 24.2 mph N/A   Clear
4:54 PM 73.9 °F 45.0 °F 35% 30.21 in 10.0 mi NNW 16.1 mph 23.0 mph 0.00 in Rain Light Rain
5:54 PM 72.0 °F 46.0 °F 40% 30.21 in 10.0 mi North 15.0 mph - 0.00 in   Clear
6:54 PM 66.9 °F 48.0 °F 51% 30.22 in 10.0 mi NNE 10.4 mph - N/A   Clear
7:54 PM 60.1 °F 48.0 °F 64% 30.24 in 10.0 mi Calm Calm - N/A   Clear
8:54 PM 59.0 °F 48.0 °F 67% 30.26 in 10.0 mi North 4.6 mph - N/A   Clear
9:54 PM 54.0 °F 48.0 °F 80% 30.27 in 10.0 mi NNW 4.6 mph - N/A   Clear
10:54 PM 50.0 °F 46.9 °F 89% 30.28 in 10.0 mi Calm Calm - N/A   Clear
11:54 PM 50.0 °F 46.9 °F 89% 30.29 in 10.0 mi North 3.5 mph - N/A   Clear